Ogden, KS

6:02 PM CST on February 08, 2016 (GMT -0600)
Manhattan Regional

Weather History for KMHK - July, 2014

Change the Weather History Date:

Tuesday, July 8, 2014

  Actual Average Record
Temperature  
Mean Temperature 81 °F 79 °F  
Max Temperature 99 °F 91 °F 101 °F (2013)
Min Temperature 62 °F 67 °F 62 °F (2014)
Degree Days  
Heating Degree Days 0 0  
Month to date heating degree days 0 0  
Since 1 June heating degree days 0 11  
Since 1 July heating degree days 0 0  
Cooling Degree Days 16 14  
Month to date cooling degree days 95 106  
Year to date cooling degree days 603 476  
Since 1 June cooling degree days 400 376  
Growing Degree Days 27 (Base 50)    
Moisture  
Dew Point 61 °F    
Average Humidity 65    
Maximum Humidity 93    
Minimum Humidity 37    
Precipitation  
Precipitation 0.01 in 0.14 in 1.95 in (1997)
Month to date precipitation 0.10 1.18  
Year to date precipitation 12.77 17.47  
Sea Level Pressure  
Sea Level Pressure 29.97 in    
Wind  
Wind Speed 6 mph (NNW)    
Max Wind Speed 48 mph    
Max Gust Speed 68 mph    
Visibility 10 miles    
Events Rain , Thunderstorm    
T = Trace of Precipitation, MM = Missing Value Source: NWS Daily Summary

Daily Weather History Graph

Daily Weather History Graph

Search for Another Location

Airport or City:

Trip Planner

Search our weather history database for the weather conditions in past years. The results will help you decide how hot, cold, wet, or windy it might be!

Date:

Astronomy

Jul. 08, 2014 Rise Set
Actual Time 6:08 AM CDT 8:55 PM CDT
Civil Twilight 5:36 AM CDT 9:26 PM CDT
Nautical Twilight 4:56 AM CDT 10:06 PM CDT
Astronomical Twilight 4:11 AM CDT 10:51 PM CDT
Moon 5:04 PM CDT (7/8) 2:40 AM CDT (7/8)
Length of Visible Light 15h 50m
Length of Day
14h 46m
Waxing Gibbous, 81% of the Moon is Illuminated
Jul 8
Waxing Gibbous
Jul 12
Full
Jul 18
Last Quarter
Jul 26
New
Aug 3
First Quarter

Hourly Weather History & Observations

Time (CDT) Temp. Heat Index Dew Point Humidity Pressure Visibility Wind Dir Wind Speed Gust Speed Precip Events Conditions
2:26 AM 71.1 °F - 64.9 °F 81% 29.95 in 9.0 mi West 8.1 mph - N/A Rain , Thunderstorm Light Rain
2:41 AM 71.1 °F - 66.0 °F 84% 29.93 in 7.0 mi North - - N/A Rain Light Rain
2:52 AM 70.0 °F - 66.0 °F 87% 29.87 in 6.0 mi ENE 15.0 mph - N/A Rain Rain
3:52 AM 69.1 °F - 66.0 °F 90% 29.89 in 10.0 mi Calm Calm - 0.01 in   Partly Cloudy
4:52 AM 68.0 °F - 64.9 °F 90% 29.92 in 10.0 mi SW 4.6 mph - N/A   Partly Cloudy
5:52 AM 68.0 °F - 66.0 °F 93% 29.95 in 10.0 mi WSW 5.8 mph - N/A   Mostly Cloudy
6:52 AM 69.1 °F - 66.0 °F 90% 29.96 in 10.0 mi Calm Calm - N/A   Clear
7:52 AM 71.1 °F - 63.0 °F 75% 29.98 in 10.0 mi Variable 4.6 mph - N/A   Clear
8:52 AM 72.0 °F - 63.0 °F 73% 29.99 in 10.0 mi Calm Calm - N/A   Clear
9:52 AM 77.0 °F - 61.0 °F 58% 29.99 in 10.0 mi Variable 5.8 mph - N/A   Clear
10:52 AM 80.1 °F 80.6 °F 57.9 °F 47% 29.98 in 10.0 mi North 9.2 mph 17.3 mph N/A   Clear
11:52 AM 81.0 °F 81.3 °F 59.0 °F 47% 29.99 in 10.0 mi NNW 6.9 mph 18.4 mph N/A   Clear
12:52 PM 84.0 °F 83.3 °F 57.0 °F 40% 30.00 in 10.0 mi North 9.2 mph 18.4 mph N/A   Clear
1:52 PM 84.0 °F 83.0 °F 55.9 °F 38% 30.01 in 10.0 mi Variable 6.9 mph 16.1 mph N/A   Clear
2:52 PM 84.9 °F 83.7 °F 55.9 °F 37% 30.00 in 10.0 mi NNW 9.2 mph 17.3 mph N/A   Clear
3:52 PM 86.0 °F 84.9 °F 57.2 °F 37% 30.02 in 10.0 mi NNW 5.8 mph - N/A   Mostly Cloudy
4:52 PM 84.9 °F 83.7 °F 55.9 °F 37% 29.99 in 10.0 mi North 8.1 mph - N/A   Partly Cloudy
5:52 PM 84.9 °F 84.2 °F 57.9 °F 40% 29.98 in 10.0 mi Variable 5.8 mph - N/A   Partly Cloudy
6:52 PM 82.9 °F 82.6 °F 57.9 °F 42% 29.97 in 10.0 mi NNW 6.9 mph - N/A   Clear
7:52 PM 81.0 °F 81.3 °F 59.0 °F 47% 29.97 in 10.0 mi NNW 3.5 mph - N/A   Clear
8:52 PM 75.9 °F - 60.1 °F 58% 29.98 in 10.0 mi NNW 3.5 mph - N/A   Clear
9:52 PM 71.1 °F - 60.1 °F 68% 30.00 in 10.0 mi Calm Calm - N/A   Clear
10:52 PM 68.0 °F - 61.0 °F 78% 30.02 in 10.0 mi Calm Calm - N/A   Clear
11:52 PM 63.0 °F - 60.1 °F 90% 30.04 in 10.0 mi Calm Calm - N/A   Clear